Location: Bodest
(46.3000°N, 22.5667°E)
Time: 22:06:48
(UTC+00:00)

Cosmos 1174 - Pass Details

Date: 16 October 2021
Orbit: 373 x 1139 km, 66.1° (Epoch: 29 November)

Event Time Altitude Azimuth Distance (km) Brightness Sun altitude
Rises 17:17:02 0° 221° (SW) 2,461 7.7 -17.3°
Reaches altitude 10° 17:19:15 10° 225° (SW) 1,512 6.6 -17.6°
Maximum altitude 17:22:28 59° 306° (NW) 462 3.6 -18.2°
Enters shadow 17:23:48 29° 15° (NNE) 744 4.4 -18.4°
